Regional Weather Roundup
Issued by NWS

Home | Current Version | Previous Version | Graphics & Text | Print | Product List | Glossary On
Versions: 1 2 3 4 5 6 7 8 9 10 11 12 13 14 15 16 17 18 19 20 21 22 23 24 25 26 27 28 29 30 31 32 33 34 35 36 37 38 39 40 41 42 43 44 45 46 47 48 49 50
000
ASUS45 KABQ 142301
RWRNM
NEW MEXICO REGIONAL WEATHER ROUNDUP
NATIONAL WEATHER SERVICE ALBUQUERQUE NM
400 PM MST THU DEC 14 2017

NOTE: "FAIR" MEANS FEW OR NO CLOUDS BELOW 12,000 FEET AGL WITH NO
       SIGNIFICANT WEATHER OR OBSTRUCTIONS TO VISION.

      THIS PRODUCT IS RELEASED AS TWO VERSIONS.  ONE VERSION NEAR
      THE TOP OF THE HOUR CONTAINING PRELIMINARY DATA FROM ALBUQUERQUE
      AND OTHER STATIONS.  A FINAL VERSION WITH ADDITIONAL DATA IS
      ISSUED ABOUT 10 MINUTES AFTER THE HOUR.

NMZ501-503-504-510>518-150000-
NORTHWEST PLATEAU/NORTHCENTRAL MOUNTAINS

CITY           SKY/WX    TMP DP  RH WIND       PRES   REMARKS
FARMINGTON     FAIR      47  23  38 VRB3      30.15R
LOS ALAMOS     FAIR      38  12  33 S10       30.14F WCI  31
SANTA FE       FAIR      40  16  37 S13       30.14S WCI  32
TAOS           MOCLDY    41  11  29 W12G20    30.15S
ANGEL FIRE     MOCLDY    32  15  49 W10       30.13S WCI  24

$$
NMZ402-403-502-505>509-150000-
WESTCENTRAL MOUNTAINS/SOUTHWEST MOUNTAINS

CITY           SKY/WX    TMP DP  RH WIND       PRES   REMARKS
GALLUP         FAIR      45  21  38 NE15      30.17R
GRANTS         FAIR      42  23  47 CALM      30.16S
SILVER CITY    FAIR      58  11  15 CALM      30.02R

$$
NMZ407-409-411-412-150000-
SOUTHERN DESERTS

CITY           SKY/WX    TMP DP  RH WIND       PRES   REMARKS
DEMING         CLOUDY    58  16  19 NE20G28   30.00R
LAS CRUCES     FAIR      61  21  21 N3        30.02S
ALAMOGORDO     FAIR      57  18  21 CALM      30.04F
T OR C         FAIR      54  13  19 NE14G24   30.06R

$$
NMZ519>523-150000-
CENTRAL VALLEYS/CENTRAL HIGHLANDS

CITY           SKY/WX    TMP DP  RH WIND       PRES   REMARKS
ALBUQUERQUE    FAIR      47  13  25 E5        30.14R
DOUBLE EAGLE   PTCLDY    45  12  26 VRB5      30.15S
MORIARTY ARPT  FAIR      41  17  36 SE5       30.19R
CLINES CORNERS FAIR      34  15  46 E7        30.17R WCI  28
BELEN          FAIR      49   9  20 W5        30.14S
SOCORRO        FAIR      50  14  23 NE6       30.11R

$$
NMZ524>526-539-540-150000-
SOUTHCENTRAL MOUNTAINS

CITY           SKY/WX    TMP DP  RH WIND       PRES   REMARKS
RUIDOSO        FAIR      36  14  41 SE12      30.16R WCI  27

$$
NMZ527>531-150000-
NORTHEAST HIGHLANDS/NORTHEAST PLAINS

CITY           SKY/WX    TMP DP  RH WIND       PRES   REMARKS
LAS VEGAS      FAIR      36  14  40 S9        30.14S WCI  29
RATON          MOCLDY    32  19  58 E7        30.16R WCI  26
CLAYTON        CLOUDY    37  21  52 N13       30.18S WCI  29

$$
NMZ532>537-150000-
EASTCENTRAL PLAINS

CITY           SKY/WX    TMP DP  RH WIND       PRES   REMARKS
SANTA ROSA     FAIR      44  16  32 E6        30.17R
TUCUMCARI      MOCLDY    47  23  38 NE13      30.16R
CANNON AFB     NOT AVBL
CLOVIS AIRPORT FAIR      44  25  47 NE13      30.18R

$$
NMZ028-029-538-150000-
SOUTHEAST PLAINS

CITY           SKY/WX    TMP DP  RH WIND       PRES   REMARKS
ROSWELL        FAIR      53  19  26 NE8       30.13F
ARTESIA        FAIR      54  19  26 NE7G13    30.13S
CARLSBAD       FAIR      55  22  27 NE9       30.10S
HOBBS          CLEAR     50  18  27 NE14      30.13S


$$



USA.gov is the U.S. government's official web portal to all federal, state and local government web resources and services.